TimeCDT,TemperatureF,Dew PointF,Humidity,Sea Level PressureIn,VisibilityMPH,Wind Direction,Wind SpeedMPH,Gust SpeedMPH,PrecipitationIn,Events,Conditions,WindDirDegrees,DateUTC
12:56 AM,60.1,57.0,90,30.05,10.0,NNE,6.9,-,N/A,,Overcast,30,2013-08-08 05:56:00
1:56 AM,59.0,55.9,90,30.04,10.0,East,5.8,-,N/A,,Overcast,80,2013-08-08 06:56:00
2:56 AM,57.9,54.0,87,30.04,10.0,ENE,3.5,-,N/A,,Overcast,60,2013-08-08 07:56:00
3:56 AM,57.9,55.0,90,30.03,10.0,Calm,Calm,-,N/A,,Overcast,0,2013-08-08 08:56:00
4:56 AM,57.0,55.0,93,30.02,10.0,Calm,Calm,-,N/A,,Overcast,0,2013-08-08 09:56:00
5:56 AM,55.9,54.0,93,30.02,10.0,North,4.6,-,N/A,,Overcast,350,2013-08-08 10:56:00
6:56 AM,55.9,54.0,93,30.03,10.0,Calm,Calm,-,N/A,,Overcast,0,2013-08-08 11:56:00
7:56 AM,57.0,54.0,89,30.05,10.0,Calm,Calm,-,N/A,,Mostly Cloudy,0,2013-08-08 12:56:00
8:56 AM,61.0,53.1,75,30.06,10.0,Variable,3.5,-,N/A,,Partly Cloudy,0,2013-08-08 13:56:00
9:56 AM,63.0,52.0,67,30.08,10.0,Calm,Calm,-,N/A,,Clear,0,2013-08-08 14:56:00
10:56 AM,66.9,52.0,59,30.07,10.0,Variable,3.5,-,N/A,,Clear,0,2013-08-08 15:56:00
11:56 AM,68.0,50.0,52,30.07,10.0,Variable,6.9,-,N/A,,Clear,0,2013-08-08 16:56:00
12:56 PM,71.1,48.9,45,30.06,10.0,North,5.8,-,N/A,,Clear,10,2013-08-08 17:56:00
1:56 PM,72.0,48.9,44,30.05,10.0,Calm,Calm,-,N/A,,Partly Cloudy,0,2013-08-08 18:56:00
2:56 PM,72.0,51.1,48,30.05,10.0,NNW,9.2,-,N/A,,Mostly Cloudy,340,2013-08-08 19:56:00
3:56 PM,72.0,50.0,46,30.05,10.0,NNW,12.7,-,N/A,,Scattered Clouds,330,2013-08-08 20:56:00
4:56 PM,73.0,51.1,46,30.04,10.0,NW,9.2,-,N/A,,Scattered Clouds,310,2013-08-08 21:56:00
5:56 PM,71.1,51.1,49,30.04,10.0,NNW,9.2,-,N/A,,Scattered Clouds,330,2013-08-08 22:56:00
6:56 PM,71.1,50.0,47,30.04,10.0,NNW,12.7,19.6,N/A,,Partly Cloudy,330,2013-08-08 23:56:00
7:56 PM,68.0,51.1,55,30.03,10.0,NNW,8.1,-,N/A,,Scattered Clouds,330,2013-08-09 00:56:00
8:56 PM,62.1,54.0,75,30.04,10.0,NNW,5.8,-,N/A,,Clear,340,2013-08-09 01:56:00
9:56 PM,59.0,53.1,81,30.06,10.0,NNW,4.6,-,N/A,,Clear,340,2013-08-09 02:56:00
10:56 PM,59.0,52.0,78,30.08,10.0,NNW,5.8,-,N/A,,Clear,330,2013-08-09 03:56:00
11:56 PM,55.0,52.0,89,30.09,10.0,NNW,4.6,-,N/A,,Clear,330,2013-08-09 04:56:00